TimeCET,TemperatureF,Dew PointF,Humidity,Sea Level PressureIn,VisibilityMPH,Wind Direction,Wind SpeedMPH,Gust SpeedMPH,PrecipitationIn,Events,Conditions,WindDirDegrees,DateUTC
12:15 AM,46.4,39.2,76,29.83,5.6,NNE,3.5,-,N/A,,Mostly Cloudy,30,2013-03-01 23:15:00
12:45 AM,46.4,39.2,76,29.83,5.6,NNW,3.5,-,N/A,,Mostly Cloudy,330,2013-03-01 23:45:00
1:15 AM,46.4,39.2,76,29.83,5.6,Calm,Calm,-,N/A,,Mostly Cloudy,0,2013-03-02 00:15:00
1:45 AM,46.4,39.2,76,29.80,6.2,North,4.6,-,N/A,,Mostly Cloudy,10,2013-03-02 00:45:00
2:15 AM,46.4,39.2,76,29.80,6.2,NNE,3.5,-,N/A,,Mostly Cloudy,20,2013-03-02 01:15:00
2:45 AM,46.4,39.2,76,29.80,6.2,NE,5.8,-,N/A,,Mostly Cloudy,40,2013-03-02 01:45:00
3:15 AM,46.4,41.0,81,29.77,6.2,NE,5.8,-,N/A,,Mostly Cloudy,40,2013-03-02 02:15:00
3:45 AM,46.4,41.0,81,29.77,6.2,NE,4.6,-,N/A,,Mostly Cloudy,40,2013-03-02 02:45:00
4:15 AM,46.4,39.2,76,29.77,6.2,NE,4.6,-,N/A,,Mostly Cloudy,40,2013-03-02 03:15:00
4:45 AM,46.4,41.0,81,29.77,6.2,North,6.9,-,N/A,,Light Drizzle,10,2013-03-02 03:45:00
5:15 AM,46.4,41.0,81,29.77,6.2,NNE,5.8,-,N/A,,Light Drizzle,20,2013-03-02 04:15:00
5:45 AM,46.4,41.0,81,29.77,6.2,NNE,4.6,-,N/A,,Light Drizzle,20,2013-03-02 04:45:00
6:15 AM,46.4,42.8,87,29.77,6.2,NNE,5.8,-,N/A,,Light Drizzle,30,2013-03-02 05:15:00
6:45 AM,46.4,42.8,87,29.77,6.2,NNE,6.9,-,N/A,,Light Drizzle,30,2013-03-02 05:45:00
7:15 AM,46.4,41.0,81,29.77,6.2,North,3.5,-,N/A,,Scattered Clouds,360,2013-03-02 06:15:00
7:45 AM,48.2,41.0,76,29.77,6.2,NNE,4.6,-,N/A,,Scattered Clouds,20,2013-03-02 06:45:00
8:15 AM,50.0,39.2,66,29.77,6.2,NE,6.9,-,N/A,,Scattered Clouds,40,2013-03-02 07:15:00
8:45 AM,50.0,39.2,66,29.77,6.2,NE,9.2,-,N/A,,Scattered Clouds,40,2013-03-02 07:45:00
9:15 AM,48.2,39.2,71,29.77,6.2,NNW,4.6,-,N/A,,Scattered Clouds,330,2013-03-02 08:15:00
9:45 AM,50.0,41.0,71,29.80,6.2,North,5.8,-,N/A,,Scattered Clouds,360,2013-03-02 08:45:00
10:15 AM,50.0,41.0,71,29.80,6.2,NNW,4.6,-,N/A,,Mostly Cloudy,340,2013-03-02 09:15:00
10:45 AM,51.8,41.0,67,29.80,6.2,North,4.6,-,N/A,,Mostly Cloudy,360,2013-03-02 09:45:00
11:15 AM,51.8,42.8,71,29.80,6.2,North,4.6,-,N/A,,Mostly Cloudy,350,2013-03-02 10:15:00
11:45 AM,55.4,41.0,58,29.80,6.2,North,8.1,-,N/A,,Scattered Clouds,10,2013-03-02 10:45:00
12:15 PM,57.2,37.4,48,29.83,6.2,North,8.1,-,N/A,,Scattered Clouds,10,2013-03-02 11:15:00
12:45 PM,55.4,35.6,47,29.83,6.2,North,9.2,-,N/A,,Scattered Clouds,10,2013-03-02 11:45:00
1:15 PM,57.2,35.6,44,29.83,6.2,North,9.2,-,N/A,,Scattered Clouds,10,2013-03-02 12:15:00
1:45 PM,57.2,33.8,41,29.83,6.2,North,5.8,-,N/A,,Scattered Clouds,360,2013-03-02 12:45:00
2:15 PM,57.2,35.6,44,29.80,6.2,North,8.1,-,N/A,,Scattered Clouds,10,2013-03-02 13:15:00
2:45 PM,57.2,35.6,44,29.80,6.2,North,8.1,-,N/A,,Scattered Clouds,10,2013-03-02 13:45:00
3:15 PM,59.0,33.8,39,29.80,6.2,NNE,9.2,-,N/A,,Scattered Clouds,20,2013-03-02 14:15:00
3:45 PM,59.0,33.8,39,29.80,6.2,North,8.1,-,N/A,,Scattered Clouds,10,2013-03-02 14:45:00
4:15 PM,57.2,32.0,38,29.80,6.2,North,9.2,-,N/A,,Scattered Clouds,10,2013-03-02 15:15:00
4:45 PM,57.2,32.0,38,29.83,6.2,NNE,10.4,-,N/A,,Scattered Clouds,30,2013-03-02 15:45:00
5:15 PM,57.2,32.0,38,29.83,6.2,NE,5.8,-,N/A,,Partly Cloudy,40,2013-03-02 16:15:00
5:45 PM,55.4,32.0,41,29.86,6.2,NE,6.9,-,N/A,,Partly Cloudy,40,2013-03-02 16:45:00
6:15 PM,55.4,30.2,38,29.86,6.2,NNE,4.6,-,N/A,,Partly Cloudy,20,2013-03-02 17:15:00
6:45 PM,51.8,30.2,44,29.89,-9999.0,ENE,3.5,-,N/A,,Clear,60,2013-03-02 17:45:00
7:15 PM,48.2,30.2,50,29.89,-9999.0,ENE,5.8,-,N/A,,Clear,70,2013-03-02 18:15:00
7:45 PM,50.0,30.2,47,29.89,-9999.0,NE,2.3,-,N/A,,Clear,40,2013-03-02 18:45:00
8:15 PM,48.2,28.4,46,29.92,-9999.0,North,3.5,-,N/A,,Clear,10,2013-03-02 19:15:00
8:45 PM,46.4,28.4,50,29.92,-9999.0,ENE,1.2,-,N/A,,Clear,60,2013-03-02 19:45:00
9:15 PM,46.4,28.4,50,29.95,6.2,NE,1.2,-,N/A,,Partly Cloudy,50,2013-03-02 20:15:00
9:45 PM,44.6,33.8,66,29.95,6.2,East,2.3,-,N/A,,Partly Cloudy,80,2013-03-02 20:45:00
10:15 PM,44.6,33.8,66,29.95,6.2,NE,2.3,-,N/A,,Scattered Clouds,40,2013-03-02 21:15:00
10:45 PM,42.8,33.8,70,29.95,6.2,ENE,2.3,-,N/A,,Scattered Clouds,70,2013-03-02 21:45:00
11:15 PM,42.8,33.8,70,29.95,6.2,North,3.5,-,N/A,,Scattered Clouds,350,2013-03-02 22:15:00
11:45 PM,44.6,33.8,66,29.95,6.2,North,4.6,-,N/A,,Scattered Clouds,360,2013-03-02 22:45:00